N3MFL Weather Reports


time (UTC)temp
C
wind
direction
speed
KPH
gust
KPH
rain 1hr
cm
rain 24hr
cm
rain mn
cm
humidity
%
barometer
mb
20260507213715 17 194 3.2 4.8 0.00 0.91 0.91 31 1006.6
20260507213213 17 76 3.2 4.8 0.00 0.91 0.91 33 1006.5
20260507212709 17 274 6.4 9.7 0.00 0.91 0.91 31 1006.6
20260507212206 17 258 1.6 1.6 0.00 0.91 0.91 30 1006.5
20260507211703 17 234 3.2 4.8 0.00 0.91 0.91 30 1006.7
20260507211158 18 244 8.0 11.3 0.00 0.91 0.91 30 1006.5
20260507210656 18 173 4.8 6.4 0.00 0.91 0.91 30 1006.5
20260507210152 18 205 0.0 0.0 0.00 0.91 0.91 32 1006.4
20260507205649 18 315 3.2 4.8 0.00 0.91 0.91 30 1006.2
20260507205146 18 245 6.4 9.7 0.00 0.91 0.91 29 1006.3
20260507204642 18 166 0.0 0.0 0.00 0.91 0.91 33 1006.2
20260507204140 18 188 3.2 4.8 0.00 0.91 0.91 30 1006.3
20260507203637 18 144 1.6 3.2 0.00 0.91 0.91 29 1006.5
20260507203135 18 260 3.2 4.8 0.00 0.91 0.91 29 1006.3
20260507202630 18 213 3.2 6.4 0.00 0.91 0.91 36 1006.4
20260507202127 18 98 0.0 1.6 0.00 0.91 0.91 31 1006.2
20260507201622 18 32 3.2 3.2 0.00 0.91 0.91 30 1006.2
20260507201119 18 202 4.8 4.8 0.00 0.91 0.91 29 1006.1
20260507200615 18 280 8.0 9.7 0.00 0.91 0.91 27 1006.4
20260507200111 18 202 4.8 6.4 0.00 0.91 0.91 30 1006.2
20260507195608 18 14 3.2 3.2 0.00 0.91 0.91 31 1006.3
20260507195105 18 295 1.6 3.2 0.00 0.91 0.91 33 1006.2
20260507194601 18 129 3.2 4.8 0.00 0.91 0.91 31 1006.1
20260507194057 19 1 4.8 6.4 0.00 0.91 0.91 31 1006.4
20260507193555 18 237 3.2 4.8 0.00 0.91 0.91 33 1006.5
20260507193052 18 287 9.7 11.3 0.00 0.91 0.91 30 1006.4
20260507192548 18 286 3.2 3.2 0.00 0.91 0.91 34 1006.6
20260507192045 18 314 1.6 3.2 0.00 0.91 0.91 34 1006.5
20260507191540 18 287 4.8 4.8 0.00 0.91 0.91 30 1006.6
20260507191038 18 194 3.2 3.2 0.00 0.91 0.91 32 1006.8
20260507190534 18 303 3.2 3.2 0.00 0.91 0.91 31 1006.8
20260507190033 18 37 1.6 4.8 0.00 0.91 0.91 37 1006.7
20260507185531 18 180 1.6 1.6 0.00 0.91 0.91 33 1006.6
20260507185027 18 44 1.6 3.2 0.00 0.91 0.91 37 1006.7
20260507184526 17 145 0.0 0.0 0.00 0.91 0.91 33 1006.9
20260507184024 18 274 6.4 11.3 0.00 0.91 0.91 31 1007.1
20260507183519 17 265 3.2 3.2 0.00 0.91 0.91 34 1007.0
20260507183017 17 227 4.8 6.4 0.00 0.91 0.91 33 1007.3
20260507182513 17 250 6.4 6.4 0.00 0.91 0.91 33 1007.3
20260507182009 17 288 8.0 11.3 0.00 0.91 0.91 33 1007.3
20260507181506 17 286 3.2 4.8 0.00 0.91 0.91 40 1007.3
20260507181001 17 198 3.2 3.2 0.00 0.91 0.91 32 1007.4
20260507180458 17 226 4.8 6.4 0.00 0.91 0.91 34 1007.5
20260507175954 17 202 6.4 6.4 0.00 0.91 0.91 32 1007.6
20260507175451 17 132 3.2 6.4 0.00 0.91 0.91 34 1007.4
20260507174949 17 6 1.6 3.2 0.00 0.91 0.91 36 1007.4
20260507174446 17 151 1.6 1.6 0.00 0.91 0.91 37 1007.5
20260507173943 17 19 1.6 3.2 0.00 0.91 0.91 33 1007.5
20260507173440 16 172 1.6 1.6 0.00 0.91 0.91 34 1007.6
20260507172937 16 195 3.2 4.8 0.00 0.91 0.91 33 1007.6
20260507172434 16 210 3.2 3.2 0.00 0.91 0.91 33 1007.6
20260507171930 16 274 3.2 4.8 0.00 0.91 0.91 33 1007.7
20260507171426 16 313 8.0 11.3 0.00 0.91 0.91 35 1007.7
20260507170924 17 214 3.2 4.8 0.00 0.91 0.91 36 1007.9
20260507170420 16 38 0.0 1.6 0.00 0.91 0.91 44 1007.9
20260507165916 16 255 6.4 11.3 0.00 0.91 0.91 36 1008.0
20260507165412 16 232 3.2 6.4 0.00 0.91 0.91 42 1008.0
20260507164908 16 259 4.8 6.4 0.00 0.91 0.91 40 1007.9
20260507164406 16 143 3.2 4.8 0.00 0.91 0.91 41 1008.3
20260507163903 16 238 0.0 1.6 0.00 0.91 0.91 43 1008.1
20260507163401 16 216 8.0 12.9 0.00 0.91 0.91 40 1008.0
20260507162857 16 216 3.2 3.2 0.00 0.91 0.91 40 1008.0
20260507162352 16 262 3.2 4.8 0.00 0.91 0.91 43 1008.3
20260507161849 17 269 4.8 6.4 0.00 0.91 0.91 51 1008.3
20260507161346 17 201 1.6 3.2 0.00 0.91 0.91 49 1008.3
20260507160842 16 104 1.6 3.2 0.00 0.91 0.91 49 1008.2
20260507160338 16 210 4.8 6.4 0.00 0.91 0.91 49 1008.4
20260507155835 16 205 3.2 4.8 0.00 0.91 0.91 54 1008.4
20260507155330 16 149 1.6 1.6 0.00 0.91 0.91 54 1008.7
20260507154827 16 124 0.0 1.6 0.00 0.91 0.91 53 1008.6
20260507154325 16 223 0.0 1.6 0.00 0.91 0.91 53 1008.6
20260507153821 16 316 3.2 4.8 0.00 0.91 0.91 59 1008.6
20260507153318 16 219 3.2 4.8 0.00 0.91 0.91 58 1008.6
20260507152815 16 153 0.0 1.6 0.00 0.91 0.91 61 1008.7
20260507152311 16 236 3.2 3.2 0.00 0.91 0.91 59 1008.9
20260507151807 15 263 4.8 4.8 0.00 0.91 0.91 58 1008.8
20260507151303 16 233 3.2 3.2 0.00 0.91 0.91 59 1008.7
20260507150800 16 207 4.8 4.8 0.00 0.91 0.91 64 1008.8
20260507150257 15 164 1.6 1.6 0.00 0.91 0.91 66 1008.7
20260507145753 14 226 1.6 3.2 0.00 0.91 0.91 65 1009.0
20260507145249 14 47 3.2 3.2 0.00 0.91 0.91 66 1009.0
20260507144747 15 132 0.0 0.0 0.00 0.91 0.91 65 1009.0
20260507144244 15 32 1.6 1.6 0.00 0.91 0.91 68 1009.0
20260507143740 15 167 3.2 6.4 0.00 0.91 0.91 62 1009.0
20260507143238 15 262 0.0 1.6 0.00 0.91 0.91 61 1009.1
20260507142734 15 128 0.0 0.0 0.00 0.91 0.91 69 1009.1
20260507142230 15 74 3.2 3.2 0.00 0.91 0.91 69 1008.9
20260507141727 15 179 1.6 1.6 0.00 0.91 0.91 66 1009.1
20260507141224 15 242 3.2 4.8 0.00 0.91 0.91 68 1009.0
20260507140720 14 59 1.6 1.6 0.00 0.91 0.91 72 1009.2
20260507140218 13 52 3.2 3.2 0.00 0.91 0.91 73 1009.2
20260507135714 14 225 6.4 6.4 0.00 0.91 0.91 73 1009.1
20260507135212 14 268 3.2 3.2 0.00 0.91 0.91 73 1009.1
20260507134708 13 105 0.0 1.6 0.00 0.91 0.91 77 1009.4
20260507134204 12 176 1.6 3.2 0.00 0.91 0.91 76 1009.0
20260507133700 12 230 1.6 3.2 0.00 0.91 0.91 78 1009.0
20260507133158 12 173 0.0 1.6 0.00 0.91 0.91 81 1009.3
20260507132655 12 241 3.2 3.2 0.00 0.91 0.91 80 1009.4
20260507132151 12 84 0.0 1.6 0.00 0.91 0.91 83 1009.6
20260507131648 12 294 1.6 1.6 0.00 0.91 0.91 84 1009.3
20260507131145 11 246 1.6 3.2 0.00 0.91 0.91 85 1009.5
20260507130642 11 13 1.6 1.6 0.00 0.91 0.91 85 1009.3
20260507130140 11 57 1.6 1.6 0.00 0.91 0.91 88 1009.2
20260507125638 11 102 0.0 0.0 0.00 0.91 0.91 90 1009.4
20260507125136 11 324 3.2 3.2 0.00 0.91 0.91 91 1009.2
20260507124632 10 275 3.2 3.2 0.00 0.91 0.91 93 1009.3
20260507124130 10 136 0.0 1.6 0.00 0.91 0.91 95 1009.3
20260507123628 10 161 0.0 0.0 0.00 0.91 0.91 95 1009.5
20260507123124 10 203 0.0 1.6 0.00 0.91 0.91 95 1009.7
20260507122619 10 246 1.6 1.6 0.00 0.91 0.91 96 1009.3
20260507122116 10 139 0.0 0.0 0.00 0.91 0.91 96 1009.2
20260507121612 10 219 1.6 1.6 0.00 0.91 0.91 96 1009.9
20260507121108 10 197 0.0 1.6 0.00 0.91 0.91 96 1009.6
20260507120604 10 184 0.0 0.0 0.00 0.91 0.91 96 1009.6
20260507120101 10 180 0.0 0.0 0.00 0.91 0.91 96 1009.5
20260507115557 10 225 0.0 0.0 0.00 0.91 0.91 96 1009.3
20260507115053 10 171 0.0 0.0 0.00 0.91 0.91 96 1009.3
20260507114549 10 230 0.0 0.0 0.00 0.91 0.91 96 1009.1
20260507114047 9 173 0.0 0.0 0.00 0.91 0.91 96 1009.4
20260507113543 9 167 0.0 0.0 0.18 0.91 0.91 96 1009.2
20260507113041 9 168 0.0 0.0 0.18 0.91 0.91 96 1008.8
20260507112538 9 154 0.0 0.0 0.13 0.89 0.89 96 1009.0
20260507112035 9 129 0.0 0.0 0.13 0.89 0.89 96 1009.1
20260507111532 9 182 0.0 0.0 0.00 0.86 0.86 96 1009.6
20260507111029 9 196 0.0 0.0 0.18 0.86 0.86 96 1009.4
20260507110525 9 145 0.0 0.0 0.30 0.86 0.86 96 1009.0
20260507110021 9 155 0.0 0.0 0.30 0.84 0.84 96 1009.1
20260507105519 8 131 0.0 0.0 0.18 0.81 0.81 96 1009.2
20260507105014 8 239 0.0 0.0 0.00 0.79 0.79 96 1009.3
20260507104512 9 164 0.0 0.0 0.00 0.79 0.79 96 1008.8
20260507104008 9 146 0.0 0.0 0.00 0.79 0.79 96 1008.6
20260507103505 8 115 0.0 0.0 0.00 0.79 0.79 96 1008.5
20260507103001 8 145 0.0 0.0 0.13 0.79 0.79 96 1008.4
20260507102458 8 122 0.0 0.0 0.13 0.79 0.79 96 1008.3
20260507101954 8 148 0.0 0.0 0.13 0.79 0.79 96 1008.8
20260507101449 9 165 0.0 0.0 0.00 0.76 0.76 96 1008.9
20260507100946 9 124 0.0 0.0 0.00 0.76 0.76 96 1008.9
20260507100444 9 111 0.0 0.0 0.00 0.76 0.76 96 1009.0
20260507095942 9 152 0.0 0.0 0.00 0.76 0.76 96 1009.2
20260507095439 9 147 0.0 0.0 0.18 0.76 0.76 96 1008.9
20260507094936 9 154 0.0 0.0 0.18 0.76 0.76 96 1008.7
20260507094432 9 103 1.6 1.6 0.13 0.74 0.74 95 1008.6
20260507093929 9 125 0.0 0.0 0.00 0.71 0.71 95 1008.5
20260507093427 9 155 0.0 0.0 0.00 0.71 0.71 95 1008.5
20260507092925 9 137 0.0 0.0 0.00 0.71 0.71 95 1008.5
20260507092421 10 107 1.6 1.6 0.00 0.71 0.71 95 1008.6
20260507091918 10 137 0.0 0.0 0.18 0.71 0.71 95 1008.4
20260507091414 10 128 0.0 0.0 0.18 0.71 0.71 95 1008.0
20260507090910 10 157 0.0 0.0 0.13 0.69 0.69 95 1008.4
20260507090406 10 127 0.0 0.0 0.13 0.69 0.69 95 1008.5
20260507085903 10 132 0.0 1.6 0.00 0.66 0.66 95 1008.8
20260507085400 10 160 0.0 0.0 0.00 0.66 0.66 95 1008.3
20260507084858 10 182 0.0 0.0 0.00 0.66 0.66 95 1008.2
20260507084354 10 168 0.0 0.0 0.18 0.66 0.66 95 1007.9
20260507083851 10 114 0.0 0.0 0.30 0.66 0.66 94 1008.0
20260507083347 10 145 0.0 1.6 0.13 0.64 0.64 94 1008.4
20260507082844 10 107 0.0 1.6 0.36 0.61 0.61 94 1007.9
20260507082339 10 151 0.0 0.0 0.36 0.61 0.61 94 1008.2
20260507081837 10 85 0.0 1.6 0.18 0.58 0.58 93 1007.8
20260507081332 10 121 1.6 1.6 0.30 0.56 0.56 93 1008.3
20260507080830 10 58 0.0 0.0 0.71 0.56 0.56 93 1007.5
20260507080326 10 20 4.8 4.8 1.19 0.51 0.51 93 1008.2
20260507075821 10 167 0.0 1.6 1.07 0.43 0.43 92 1008.5
20260507075318 11 88 1.6 1.6 0.97 0.33 0.33 91 1008.3
20260507074814 11 91 3.2 3.2 0.97 0.28 0.28 91 1008.8
20260507074312 12 229 4.8 4.8 0.43 0.18 0.18 91 1008.3
20260507073809 12 78 1.6 1.6 0.71 0.13 0.13 91 1008.2
20260507073305 12 161 1.6 3.2 0.61 0.10 0.10 90 1007.7
20260507072803 12 297 3.2 3.2 0.13 0.03 0.03 88 1007.4
20260507072300 12 200 1.6 3.2 0.00 0.00 0.00 90 1007.5
20260507071757 12 132 0.0 0.0 0.00 0.00 0.00 92 1006.8
20260507071254 12 96 0.0 0.0 0.00 0.00 0.00 94 1006.8
20260507070751 12 45 0.0 1.6 0.00 0.00 0.00 95 1007.1
20260507070248 12 127 0.0 1.6 0.00 0.00 0.00 96 1007.0
20260507065744 13 61 0.0 0.0 0.00 0.00 0.00 96 1006.8
20260507065241 13 59 1.6 1.6 0.00 0.00 0.00 97 1006.8
20260507064738 13 161 0.0 0.0 0.00 0.00 0.00 97 1007.1
20260507064237 13 178 0.0 0.0 0.00 0.00 0.00 97 1007.2
20260507063734 13 218 1.6 1.6 0.00 0.00 0.00 97 1006.9
20260507063231 13 180 0.0 0.0 0.00 0.00 0.00 97 1007.2
20260507062728 13 171 0.0 0.0 0.00 0.00 0.00 97 1007.1
20260507062225 13 173 0.0 0.0 0.00 0.00 0.00 97 1007.1
20260507061723 13 173 0.0 0.0 0.00 0.00 0.00 97 1007.2
20260507061221 13 166 0.0 0.0 0.00 0.00 0.00 97 1007.3
20260507060719 13 166 0.0 0.0 0.00 0.00 0.00 97 1007.0
20260507060215 13 166 0.0 0.0 0.00 0.00 0.00 97 1007.0
20260507055711 13 176 0.0 0.0 0.00 0.00 0.00 97 1007.2
20260507055207 13 177 0.0 0.0 0.00 0.00 0.00 97 1007.3
20260507054703 13 176 0.0 0.0 0.00 0.00 0.00 97 1007.4
20260507054200 13 169 0.0 0.0 0.00 0.00 0.00 97 1007.5
20260507053658 13 174 0.0 0.0 0.00 0.00 0.00 97 1007.7
20260507053156 13 190 0.0 0.0 0.00 0.00 0.00 97 1007.8
20260507052654 13 171 0.0 0.0 0.00 0.00 0.00 97 1007.8
20260507052149 13 177 0.0 0.0 0.00 0.00 0.00 97 1007.6
20260507051648 13 168 0.0 0.0 0.00 0.00 0.00 96 1007.6
20260507051144 13 189 0.0 0.0 0.00 0.00 0.00 97 1007.7
20260507050641 13 190 0.0 0.0 0.00 0.00 0.00 96 1007.8
20260507050138 13 205 0.0 1.6 0.00 0.00 0.00 96 1007.9
20260507045635 13 178 0.0 0.0 0.00 0.00 0.00 96 1007.9
20260507045131 13 194 0.0 0.0 0.00 0.00 0.00 96 1007.8
20260507044628 13 202 1.6 1.6 0.00 0.00 0.00 96 1007.9
20260507044125 13 189 0.0 0.0 0.00 0.00 0.00 96 1007.9
20260507043621 13 203 0.0 1.6 0.00 0.00 0.00 96 1007.8
20260507043118 13 215 1.6 1.6 0.00 0.00 0.00 96 1008.0
20260507042614 13 194 0.0 1.6 0.00 0.00 0.00 96 1008.0
20260507042110 13 203 3.2 4.8 0.00 0.00 0.00 96 1007.9
20260507041607 13 207 0.0 1.6 0.00 0.00 0.00 96 1007.8
20260507041104 13 188 0.0 0.0 0.00 0.00 0.00 96 1007.6
20260507040600 13 220 1.6 1.6 0.00 0.00 0.00 96 1007.7
20260507040057 13 174 0.0 1.6 0.00 0.00 0.00 96 1007.8
20260507035553 13 205 1.6 1.6 0.00 0.05 0.05 96 1007.7
20260507035049 13 190 0.0 0.0 0.00 0.05 0.05 96 1007.6
20260507034546 13 205 1.6 1.6 0.00 0.05 0.05 96 1007.8
20260507034044 13 196 1.6 1.6 0.00 0.05 0.05 96 1007.6
20260507033542 13 200 1.6 3.2 0.00 0.05 0.05 96 1008.0
20260507033039 13 220 1.6 3.2 0.00 0.05 0.05 96 1008.0
20260507032535 13 235 1.6 1.6 0.00 0.05 0.05 96 1008.1
20260507032032 13 242 3.2 3.2 0.00 0.05 0.05 96 1008.2
20260507031528 13 199 1.6 3.2 0.00 0.05 0.05 96 1008.0
20260507031026 13 198 0.0 1.6 0.00 0.05 0.05 96 1007.9
20260507030522 13 232 1.6 1.6 0.00 0.05 0.05 96 1007.9
20260507030020 13 187 1.6 1.6 0.00 0.05 0.05 96 1008.0
20260507025516 13 231 1.6 1.6 0.00 0.05 0.05 96 1007.9
20260507025014 13 218 3.2 3.2 0.00 0.05 0.05 96 1007.9
20260507024512 13 211 1.6 3.2 0.00 0.05 0.05 96 1007.8
20260507024008 13 211 3.2 4.8 0.00 0.05 0.05 96 1007.9
20260507023504 13 221 3.2 4.8 0.00 0.05 0.05 96 1007.9
20260507023001 13 231 3.2 4.8 0.00 0.05 0.05 96 1008.1
20260507022458 13 244 3.2 3.2 0.00 0.05 0.05 96 1008.2
20260507021954 13 244 3.2 3.2 0.00 0.05 0.05 96 1007.8
20260507021450 13 221 3.2 3.2 0.00 0.05 0.05 96 1007.9
20260507020947 13 191 4.8 4.8 0.00 0.05 0.05 96 1008.1
20260507020444 13 239 3.2 3.2 0.00 0.05 0.05 96 1008.0
20260507015941 13 168 1.6 3.2 0.00 0.05 0.05 96 1008.2
20260507015439 13 188 0.0 1.6 0.00 0.05 0.05 96 1008.1
20260507014936 13 220 3.2 6.4 0.00 0.05 0.05 95 1008.0
20260507014433 13 184 3.2 3.2 0.00 0.05 0.05 95 1008.0
20260507013929 13 240 4.8 6.4 0.00 0.05 0.05 95 1008.2
20260507013426 13 212 1.6 3.2 0.00 0.05 0.05 95 1008.1
20260507012923 13 207 3.2 3.2 0.00 0.05 0.05 95 1008.1
20260507012420 13 216 3.2 3.2 0.00 0.05 0.05 95 1008.3
20260507011917 13 201 3.2 3.2 0.00 0.05 0.05 96 1008.3
20260507011414 13 236 3.2 3.2 0.00 0.05 0.05 96 1008.5
20260507010913 13 244 3.2 3.2 0.00 0.05 0.05 96 1008.3
20260507010409 13 202 3.2 3.2 0.00 0.05 0.05 96 1008.5
20260507005906 13 194 3.2 3.2 0.00 0.05 0.05 96 1008.5
20260507005403 13 147 3.2 4.8 0.00 0.05 0.05 96 1008.5
20260507004900 13 207 3.2 3.2 0.00 0.05 0.05 96 1008.3
20260507004357 13 251 3.2 4.8 0.00 0.05 0.05 96 1008.4
20260507003854 13 185 3.2 3.2 0.00 0.05 0.05 96 1008.4
20260507003349 13 232 3.2 3.2 0.00 0.05 0.05 96 1008.6
20260507002844 13 250 3.2 3.2 0.00 0.05 0.05 96 1008.3
20260507002341 13 170 0.0 0.0 0.00 0.05 0.05 96 1008.4
20260507001838 13 213 3.2 3.2 0.00 0.05 0.05 96 1008.4
20260507001335 13 251 3.2 4.8 0.00 0.05 0.05 96 1008.5
20260507000831 13 257 1.6 1.6 0.00 0.05 0.05 96 1008.3
20260507000328 13 163 6.4 9.7 0.00 0.05 0.05 96 1008.4
20260506235824 13 187 3.2 4.8 0.00 0.05 0.05 96 1008.4
20260506235320 13 206 3.2 3.2 0.00 0.05 0.05 96 1008.3
20260506234816 13 201 3.2 3.2 0.00 0.05 0.05 96 1008.4
20260506234314 12 238 3.2 4.8 0.00 0.05 0.05 96 1008.3
20260506233812 12 244 4.8 4.8 0.00 0.05 0.05 96 1008.3
20260506233307 12 210 4.8 4.8 0.00 0.05 0.05 96 1008.0
20260506232804 12 214 4.8 4.8 0.00 0.05 0.05 96 1008.2
20260506232300 12 208 3.2 3.2 0.00 0.05 0.05 95 1008.3
20260506231757 12 196 4.8 6.4 0.00 0.05 0.05 95 1008.3
20260506231255 12 200 6.4 6.4 0.00 0.05 0.05 95 1008.3
20260506230752 12 218 3.2 4.8 0.00 0.05 0.05 95 1008.6
20260506230249 12 219 3.2 4.8 0.00 0.05 0.05 95 1008.5
20260506225745 12 256 1.6 3.2 0.00 0.05 0.05 95 1008.4
20260506225242 12 211 3.2 3.2 0.00 0.05 0.05 95 1008.3
20260506224738 12 211 9.7 11.3 0.00 0.05 0.05 95 1008.4
20260506224236 12 194 8.0 9.7 0.18 0.05 0.05 94 1008.1
20260506223732 13 194 1.6 1.6 0.18 0.05 0.05 94 1008.2
20260506223228 13 191 4.8 4.8 0.00 0.03 0.03 94 1008.1
20260506222725 13 230 6.4 6.4 0.00 0.03 0.03 94 1008.4
20260506222220 13 231 4.8 4.8 0.00 0.03 0.03 94 1008.3
20260506221719 13 225 4.8 4.8 0.00 0.03 0.03 94 1008.3
20260506221217 13 215 3.2 4.8 0.00 0.03 0.03 94 1008.4
20260506220714 13 233 3.2 3.2 0.00 0.03 0.03 94 1008.7
20260506220208 13 209 1.6 3.2 0.00 0.03 0.03 94 1008.8
20260506215705 13 225 8.0 11.3 0.00 0.03 0.03 94 1008.8
20260506215200 13 219 3.2 4.8 0.00 0.03 0.03 94 1008.9
20260506214657 13 242 3.2 6.4 0.00 0.03 0.03 94 1008.8
20260506214155 13 243 4.8 6.4 0.00 0.03 0.03 93 1008.4